Location: Petrozavodsk
(61.7857°N, 34.3593°E)
Time: 11:32:18
(UTC+03:00)

Terra - Pass Details

Date: 24 October 2019
Orbit: 701 x 703 km, 98.2° (Epoch: 17 November)

Event Time Altitude Azimuth Distance (km) Brightness Sun altitude
Exits shadow 22:45:53 22° 329° (NNW) 1,507 4.0 -36.8°
Drops below altitude 10° 22:47:41 10° 337° (NNW) 2,186 5.1 -37.0°
Sets 22:50:00 0° 342° (NNW) 3,108 6.1 -37.1°
